Curtin, Australia

7:59 AM AWST on November 21, 2017 (GMT +0800)
Curtin

Weather History for YCIN - October, 2013

Change the Weather History Date:

Monday, October 21, 2013

  Actual Average Record
Temperature  
Mean Temperature 87 °F -  
Max Temperature 104 °F - - ()
Min Temperature 70 °F - - ()
Cooling Degree Days 22    
Growing Degree Days 37 (Base 50)    
Moisture  
Dew Point 61 °F    
Average Humidity 45    
Maximum Humidity 73    
Minimum Humidity 10    
Precipitation  
Precipitation 0.00 in - - ()
Sea Level Pressure  
Sea Level Pressure 29.78 in    
Wind  
Wind Speed 6 mph ()    
Max Wind Speed 13 mph    
Max Gust Speed -    
T = Trace of Precipitation, MM = Missing Value Source: Averaged Metar Reports

Daily Weather History Graph

Daily Weather History Graph

Search for Another Location

Airport or City:

Trip Planner

Search our weather history database for the weather conditions in past years. The results will help you decide how hot, cold, wet, or windy it might be!

Date:

Astronomy

Oct. 21, 2013 Rise Set
Actual Time 5:12 AM AWST 5:46 PM AWST
Civil Twilight 4:49 AM AWST 6:08 PM AWST
Nautical Twilight 4:24 AM AWST 6:34 PM AWST
Astronomical Twilight 3:57 AM AWST 7:01 PM AWST
Moon 7:51 PM AWST (10/21) 6:38 AM AWST (10/21)
Length of Visible Light 13h 18m
Length of Day
12h 34m
Waning Gibbous, 95% of the Moon is Illuminated
Oct 21
Waning Gibbous
Oct 27
Last Quarter
Nov 3
New
Nov 10
First Quarter
Nov 17
Full

Hourly Weather History & Observations

Time (AWST) Temp. Heat Index Dew Point Humidity Pressure Visibility Wind Dir Wind Speed Gust Speed Precip Events Conditions
12:00 AM 77 °F - 60 °F 46% 29.79 in - West 4.6 mph - -  
12:00 AM 77.0 °F - 60.8 °F 57% 29.80 in - West 4.6 mph - N/A   Mostly Cloudy
1:00 AM 73.4 °F - 60.8 °F 65% 29.77 in - Calm Calm - N/A   Scattered Clouds
2:00 AM 77.0 °F - 59.0 °F 54% 29.77 in - WNW 5.8 mph - N/A   Unknown
3:00 AM 72 °F - 58 °F 51% 29.78 in - NW 4.6 mph - -  
3:00 AM 71.6 °F - 57.2 °F 60% 29.77 in - NW 4.6 mph - N/A   Unknown
4:00 AM 73.4 °F - 60.8 °F 65% 29.77 in - North 5.8 mph - N/A   Unknown
5:00 AM 71.6 °F - 60.8 °F 69% 29.80 in - North 4.6 mph - N/A   Unknown
6:00 AM 76 °F - 66 °F 63% 29.82 in - North 5.8 mph - -  
6:00 AM 75.2 °F - 66.2 °F 73% 29.83 in - North 5.8 mph - N/A   Unknown
7:00 AM 82.4 °F 85.4 °F 68.0 °F 62% 29.83 in - NW 8.1 mph - N/A   Unknown
8:00 AM 89.6 °F 87.3 °F 53.6 °F 29% 29.86 in - West 10.4 mph - N/A   Unknown
9:00 AM 90 °F - 53 °F 18% 29.86 in - WSW 9.2 mph - -  
9:00 AM 89.6 °F - 51.8 °F 27% 29.86 in - WSW 9.2 mph - N/A   Unknown
10:00 AM 91.4 °F 89.1 °F 53.6 °F 28% 29.83 in - SW 9.2 mph - N/A   Unknown
11:00 AM 93.2 °F 91.9 °F 57.2 °F 30% 29.83 in - SW 9.2 mph - N/A   Unknown
12:00 PM 98 °F - 57 °F 17% 29.78 in - SSW 8.1 mph - -  
12:00 PM 98.6 °F 97.6 °F 57.2 °F 25% 29.77 in - SSW 8.1 mph - N/A   Unknown
1:00 PM 102.2 °F - 51.8 °F 18% 29.74 in - SSW 8.1 mph - N/A   Unknown
2:00 PM 102.2 °F - 51.8 °F 18% 29.71 in - West 6.9 mph - N/A   Unknown
3:00 PM 103 °F - 51 °F 10% 29.70 in - South 8.1 mph - -  
3:00 PM 102.2 °F - 51.8 °F 18% 29.71 in - South 8.1 mph - N/A   Unknown
4:00 PM 100.4 °F - 51.8 °F 20% 29.71 in - SW 6.9 mph - N/A   Mostly Cloudy
5:00 PM 95.0 °F 97.0 °F 64.4 °F 36% 29.71 in - NW 9.2 mph - N/A   Unknown
6:00 PM 90 °F - 69 °F 40% 29.75 in - West 12.7 mph - -  
6:00 PM 89.6 °F 93.4 °F 68.0 °F 49% 29.74 in - West 12.7 mph - N/A   Unknown
7:00 PM 87.8 °F 93.8 °F 71.6 °F 58% 29.77 in - North 4.6 mph - N/A   Unknown
8:00 PM 84.2 °F 89.6 °F 71.6 °F 66% 29.80 in - North 4.6 mph - N/A   Unknown
9:00 PM 82 °F - 72 °F 63% 29.79 in - NNW 4.6 mph - -  
9:00 PM 82.4 °F 87.2 °F 71.6 °F 70% 29.80 in - NNW 4.6 mph - N/A   Unknown
10:00 PM 82.4 °F 87.2 °F 71.6 °F 70% 29.80 in - WNW 5.8 mph - N/A   Unknown
11:00 PM 80.6 °F 83.9 °F 69.8 °F 70% 29.77 in - SW 4.6 mph - N/A   Unknown